Marion, OH

8:57 PM EST on February 06, 2016 (GMT -0500)
Marion Municipal

Weather History for KMNN - December, 2012

Change the Weather History Date:

Thursday, December 13, 2012

  Actual Average (KMFD) Record (KMFD)
Temperature  
Mean Temperature 32 °F 30 °F  
Max Temperature 42 °F 37 °F 62 °F (1927)
Min Temperature 21 °F 23 °F -15 °F (1958)
Degree Days  
Heating Degree Days 34 35  
Month to date heating degree days 426  
Since 1 July heating degree days 1707  
Cooling Degree Days 0 0  
Month to date cooling degree days 0  
Year to date cooling degree days 632  
Moisture  
Dew Point 24 °F    
Average Humidity 76    
Maximum Humidity 92    
Minimum Humidity 51    
Precipitation  
Precipitation 0.00 in 0.11 in - ()
Month to date precipitation 1.43  
Year to date precipitation 42.33  
Snow  
Snow 0.00 in 0.30 in - ()
Month to date snowfall 3.6  
Since 1 July snowfall 6.3  
Snow Depth -    
Sea Level Pressure  
Sea Level Pressure 30.38 in    
Wind  
Wind Speed 5 mph (South)    
Max Wind Speed 10 mph    
Max Gust Speed -    
Visibility 9 miles    
Events      
T = Trace of Precipitation, MM = Missing Value Source: NWS Daily Summary

Daily Weather History Graph

Daily Weather History Graph

Search for Another Location

Airport or City:

Trip Planner

Search our weather history database for the weather conditions in past years. The results will help you decide how hot, cold, wet, or windy it might be!

Date:

Astronomy

Dec. 13, 2012 Rise Set
Actual Time 7:47 AM EST 5:05 PM EST
Civil Twilight 7:16 AM EST 5:36 PM EST
Nautical Twilight 6:42 AM EST 6:10 PM EST
Astronomical Twilight 6:09 AM EST 6:44 PM EST
Moon 7:55 AM EST (12/13) 5:46 PM EST (12/13)
Length of Visible Light 10h 19m
Length of Day
9h 17m
New Moon, 0% of the Moon is Illuminated
Dec 13
New Moon
Dec 20
First Quarter
Dec 28
Full
Jan 4
Last Quarter
Jan 11
New

Hourly Weather History & Observations

Time (EST) Temp. Windchill Dew Point Humidity Pressure Visibility Wind Dir Wind Speed Gust Speed Precip Events Conditions
12:53 AM 27.0 °F 20.5 °F 21.9 °F 81% 30.41 in 10.0 mi SSE 5.8 mph - N/A   Clear
1:53 AM 26.1 °F - 21.0 °F 81% 30.40 in 8.0 mi Calm Calm - N/A   Clear
2:53 AM 25.0 °F - 21.9 °F 88% 30.42 in 9.0 mi Calm Calm - N/A   Clear
3:53 AM 24.1 °F - 21.0 °F 88% 30.43 in 8.0 mi Calm Calm - N/A   Clear
4:53 AM 23.0 °F - 19.9 °F 88% 30.44 in 6.0 mi Calm Calm - N/A   Clear
5:53 AM 23.0 °F 14.7 °F 21.0 °F 92% 30.43 in 7.0 mi SSE 6.9 mph - N/A   Clear
6:53 AM 23.0 °F 18.4 °F 19.9 °F 88% 30.44 in 8.0 mi SSE 3.5 mph - N/A   Clear
7:53 AM 21.9 °F 15.7 °F 19.0 °F 89% 30.45 in 7.0 mi South 4.6 mph - N/A   Clear
8:53 AM 27.0 °F 20.5 °F 23.0 °F 85% 30.45 in 8.0 mi South 5.8 mph - N/A   Clear
9:53 AM 30.0 °F 23.2 °F 25.0 °F 82% 30.45 in 9.0 mi South 6.9 mph - N/A   Clear
10:53 AM 35.1 °F 28.6 °F 27.0 °F 72% 30.43 in 10.0 mi South 8.1 mph - N/A   Clear
11:53 AM 37.9 °F 30.9 °F 26.1 °F 62% 30.40 in 10.0 mi SSW 10.4 mph - N/A   Clear
12:53 PM 41.0 °F 35.2 °F 27.0 °F 57% 30.38 in 10.0 mi SSW 9.2 mph - N/A   Clear
1:53 PM 42.1 °F 36.6 °F 26.1 °F 53% 30.36 in 10.0 mi South 9.2 mph - N/A   Clear
2:53 PM 42.1 °F 36.6 °F 26.1 °F 53% 30.35 in 10.0 mi South 9.2 mph - N/A   Clear
3:53 PM 41.0 °F 35.2 °F 24.1 °F 51% 30.34 in 10.0 mi SSW 9.2 mph - N/A   Clear
4:53 PM 35.1 °F 29.3 °F 26.1 °F 70% 30.32 in 10.0 mi South 6.9 mph - N/A   Clear
6:53 PM 30.9 °F 25.2 °F 25.0 °F 79% 30.32 in 10.0 mi SSW 5.8 mph - N/A   Clear
8:53 PM 30.9 °F 22.8 °F 24.1 °F 76% 30.31 in 10.0 mi South 9.2 mph - N/A   Clear
9:53 PM 30.9 °F 22.2 °F 24.1 °F 76% 30.28 in 10.0 mi South 10.4 mph - N/A   Clear
10:53 PM 30.0 °F 22.4 °F 24.1 °F 79% 30.29 in 10.0 mi South 8.1 mph - N/A   Clear
11:53 PM 30.0 °F 22.4 °F 24.1 °F 79% 30.27 in 10.0 mi South 8.1 mph - N/A   Clear